Location: GMARS
(34.2910°N, 116.3838°W)
Time: 13:58:43
(UTC-07:00)

Daily predictions for brighter satellites

Satellite Brightness Start Highest point End
(mag) Time Altitude Azimuth Time Altitude Azimuth Time Altitude Azimuth
Cosmos 2034 Rocket 4.2 19:45:37 10° S 19:51:49 80° W 19:57:59 10° N
CENTAUR R/B 4.0 19:51:18 10° WSW 19:56:55 41° NW 20:03:13 10° NNE
Resurs 1-3 4.0 19:53:39 10° SE 19:57:48 45° ENE 20:02:00 10° N
Gblst 52 Del rocket 4.3 19:52:04 10° NW 19:57:56 66° NE 20:03:22 10° ESE
Cosmos 1869 Rocket 3.9 19:56:38 10° N 20:00:58 45° E 20:05:14 10° SSE
Cosmos 2360 4.3 19:58:39 10° SSW 20:04:21 89° ESE 20:10:07 10° NNE
Atlas Centaur 2 3.4 20:00:56 10° SW 20:06:59 36° SSE 20:14:09 10° E
SL-8 R/B 3.8 20:02:34 10° NW 20:07:23 79° SW 20:11:58 11° SE
Cosmos 1455 2.1 20:06:13 10° S 20:10:00 86° ESE 20:13:49 10° N
BREEZE-M DEB (TANK) 3.8 20:07:52 10° WNW 20:10:21 37° SW 20:15:30 10° SSE
Cosmos 2242 Rocket 4.4 20:07:16 10° SSE 20:11:13 30° E 20:15:09 10° NNE
Helios 1A 3.7 20:13:12 12° SE 20:16:42 35° ENE 20:20:34 10° N
Cosmos 1869 3.2 20:19:43 10° S 20:23:35 63° E 20:27:29 10° NNE
Cosmos 2279 Rocket 4.4 20:20:06 10° SSE 20:25:49 39° E 20:31:33 10° NNE
DELTA 2 R/B (1) 3.6 20:20:40 10° WNW 20:26:17 81° SSW 20:30:21 19° ESE
CZ-4B DEB 3.8 20:26:45 23° E 20:27:33 26° ENE 20:30:08 10° NNE
GRACE-1 4.0 20:25:40 10° N 20:28:23 72° W 20:31:05 10° S
GRACE-2 4.0 20:26:03 10° N 20:28:46 73° W 20:31:28 10° S
Meteor 2-20 4.5 20:22:55 10° N 20:28:58 63° E 20:35:02 10° SSE
Resurs 01 Rocket 2.1 20:24:38 10° S 20:29:02 64° WSW 20:33:27 10° NNW
Spot 2 Rocket 3.7 20:24:32 10° S 20:29:38 75° WSW 20:34:43 10° NNW
OAO 3 Rocket 3.2 20:25:38 10° W 20:30:32 86° N 20:34:27 16° E
BREEZE-M DEB (TANK) 3.8 20:27:26 10° WSW 20:31:17 79° NNW 20:39:06 10° NE
Cosmos 1892 3.8 20:28:00 10° NNW 20:31:39 45° W 20:35:16 10° SSW
YAOGAN 6 4.4 20:31:23 16° ENE 20:31:40 16° ENE 20:34:01 10° NNE
Cosmos 1900 4.5 20:27:20 10° NNW 20:32:27 80° WSW 20:36:57 14° SSE
Cosmos 1400 Rocket 4.2 20:31:28 10° NNW 20:35:05 37° W 20:38:44 10° SSW
Meteor 1-29 2.9 20:33:39 10° NNE 20:37:04 58° E 20:40:27 10° S
H-2A R/B 4.4 20:34:15 10° SSW 20:37:51 35° W 20:41:26 10° NNW
CZ-3B DEB 2.6 20:43:30 10° WNW 20:46:10 19° WSW 20:47:29 13° SSW
Cosmos 2263 Rocket 3.1 20:43:28 10° N 20:48:19 30° ENE 20:50:08 25° E
Cosmos 220 Rocket 4.1 20:43:56 10° N 20:48:19 58° ENE 20:50:11 32° SE
Cosmos 1933 3.7 20:47:17 32° SE 20:48:28 42° E 20:52:17 10° NNE
Cosmos 1315 Rocket 3.5 20:44:56 10° NNW 20:48:54 53° W 20:52:47 10° S
Meteor 2-10 Rocket 4.4 20:46:40 25° SE 20:48:57 34° E 20:54:06 10° NNE
Envisat 2.9 20:45:59 20° SSE 20:49:33 71° ENE 20:54:37 10° N
Cosmos 2322 Rocket 2.2 20:44:07 10° SSW 20:49:43 86° WNW 20:55:22 10° NNE
OTV 4 2.3 20:48:50 10° W 20:51:00 19° SSW 20:51:16 19° SSW
Cosmos 2360 Rocket 2.5 20:57:15 24° SSE 21:00:07 41° ESE 21:05:23 10° NE
Cosmos 1825 2.0 20:57:13 10° N 21:01:01 86° E 21:02:11 43° S
USA 186 4.0 21:05:33 13° SW 21:07:05 19° W 21:09:10 10° NW
Cosmos 2322 4.0 21:07:11 38° SE 21:08:10 41° ESE 21:13:28 10° NE
SEDSat Delta rocket 3.7 21:03:25 10° WSW 21:08:44 61° S 21:10:43 40° ESE
USA 234 3.3 21:10:15 35° ESE 21:13:15 73° NE 21:19:46 10° NW
Cosmos 2026 Rocket 4.1 21:08:07 10° N 21:14:19 74° W 21:18:58 18° S
Cosmos 1862 3.2 21:11:33 10° N 21:15:36 86° E 21:16:03 69° SSE
SL-16 R/B 3.1 21:12:05 10° SW 21:17:33 50° WNW 21:23:04 10° N
Helios 1B rocket 4.3 21:14:44 10° N 21:18:21 31° WNW 21:21:57 10° SW
ERBS 2.6 21:16:21 10° NW 21:19:24 65° WNW 21:19:24 65° WNW
Lacrosse 4 Rocket 1.3 21:16:42 10° NNW 21:21:03 89° SW 21:21:30 72° SSE
Cosmos 1939 Rocket 3.4 21:20:15 38° SSW 21:21:30 55° W 21:25:28 10° NNW
ERS-1 Rocket 2.9 21:22:09 57° SE 21:23:01 70° ENE 21:28:01 10° N
MetOp-B 4.4 21:23:30 46° E 21:23:56 47° ENE 21:29:02 10° N
Cosmos 1733 Rocket 3.3 21:23:02 10° NNW 21:27:28 66° W 21:28:30 48° SSW
ATLAS 5 CENTAUR R/B 3.2 21:22:33 10° NNW 21:28:11 38° NE 21:29:19 35° ENE
Cosmos 1862 Rocket 4.4 21:27:08 19° SSW 21:30:03 50° W 21:34:25 10° N
STPSAT 2 (USA 217) 4.5 21:27:47 10° NNW 21:32:24 87° ENE 21:32:26 87° E
ARGOS 3.6 21:34:29 44° ENE 21:34:29 44° ENE 21:39:23 10° N
Cosmos 1408 4.4 21:32:19 10° NNW 21:35:28 27° W 21:36:28 24° WSW
SeaSat 1 3.3 21:36:49 37° NE 21:36:49 37° NE 21:41:01 10° N
Meteor 1-26 Rocket 4.1 21:40:50 56° S 21:42:08 89° E 21:47:55 10° N
Terra 4.0 21:48:57 14° NE 21:48:57 14° NE 21:50:12 10° NNE
Cosmos 1703 Rocket 4.3 21:51:17 47° N 21:51:17 47° N 21:54:28 10° N
Cosmos 1844 Rocket 4.3 21:47:20 10° N 21:50:44 21° NE 21:50:44 21° NE
Atlas Centaur 2 2.9 21:48:52 10° WSW 21:56:13 63° S 21:56:51 61° SSE
USA 229 DEB 3.6 21:49:52 10° SSW 21:56:40 88° WNW 22:03:37 10° NNE
USA 229 3.6 21:49:57 10° SSW 21:56:45 89° NW 22:03:42 10° NNE
Cosmos 2266 Rocket 3.9 21:56:08 10° N 22:02:26 90° W 22:02:49 81° S
BREEZE-M DEB (TANK) 4.1 21:48:26 10° NW 22:05:10 79° SW 22:05:43 73° S
Cosmos 2219 Rocket 4.4 22:10:17 13° NE 22:10:17 13° NE 22:10:56 10° NE
Nimbus 7 Rocket 4.3 22:02:02 10° NNE 22:07:59 85° WNW 22:08:00 85° W
MetOp-A 4.5 22:09:59 59° W 22:09:59 59° W 22:15:07 10° NNW
H-2A R/B 3.0 22:14:05 38° NNE 22:14:05 38° NNE 22:17:15 10° N
MOS 1-B Rocket 3.9 22:13:24 82° NNW 22:13:24 82° NNW 22:18:51 10° NNW
OAO 3 Rocket 4.4 22:09:14 10° W 22:12:16 38° W 22:12:16 38° W
Cosmos 1867 4.1 22:09:10 10° NNW 22:13:26 53° N 22:13:26 53° N
SPOT 5 3.9 22:22:39 43° NW 22:22:39 43° NW 22:26:04 10° NNW
Cosmos 968 Rocket 4.5 22:23:05 10° NNW 22:26:54 44° WNW 22:26:54 44° WNW
Milstar 3 3.9 22:22:31 10° W 22:26:44 30° SW 22:26:44 30° SW
COSMOS 2428 3.7 22:34:03 42° N 22:34:03 42° N 22:37:48 10° NNE
Cosmos 2263 Rocket 3.5 22:27:19 10° NW 22:31:52 30° W 22:31:52 30° W
H-2A R/B 4.5 22:38:13 18° N 22:38:13 18° N 22:39:23 10° N
Cosmos 2360 Rocket 4.2 22:39:45 10° WSW 22:44:14 24° WNW 22:48:44 10° N
Cosmos 2333 Rocket 4.1 23:16:06 24° NNE 23:16:06 24° NNE 23:18:15 10° NNE
ATLAS 5 CENTAUR R/B 3.9 23:07:17 10° NW 23:10:52 29° WNW 23:10:52 29° WNW
Cosmos 2237 Rocket 4.4 23:23:20 19° NNE 23:23:20 19° NNE 23:24:50 10° NNE
Terra 4.4 23:27:49 17° NW 23:27:49 17° NW 23:28:57 10° NNW
Cosmos 2278 Rocket 4.1 23:21:26 10° NNW 23:23:48 25° N 23:23:48 25° N
Cosmos 2219 Rocket 4.4 23:51:56 21° NNW 23:51:56 21° NNW 23:54:29 10° N
